Weather History for KCNC - October, 2013

Change the Weather History Date:

Friday, October 25, 2013

  Actual Average Record
Temperature  
Mean Temperature 42 °F -  
Max Temperature 55 °F 61 °F 80 °F (1952)
Min Temperature 28 °F 37 °F 19 °F (1968)
Degree Days  
Heating Degree Days 24    
Moisture  
Dew Point 26 °F    
Average Humidity 56    
Maximum Humidity 80    
Minimum Humidity 33    
Precipitation  
Precipitation 0.00 in - - ()
Sea Level Pressure  
Sea Level Pressure 30.29 in    
Wind  
Wind Speed 10 mph (SW)    
Max Wind Speed 24 mph    
Max Gust Speed 31 mph    
Visibility 10 miles    
Events      
Averages and records for this station are not official NWS values.
T = Trace of Precipitation, MM = Missing Value Source: NWS Daily Summary

Daily Weather History Graph

Daily Weather History Graph

Search for Another Location

Airport or City:

Trip Planner

Search our weather history database for the weather conditions in past years. The results will help you decide how hot, cold, wet, or windy it might be!

Date:

Astronomy

Oct. 25, 2013 Rise Set
Actual Time 7:36 AM CDT 6:17 PM CDT
Civil Twilight 7:08 AM CDT 6:46 PM CDT
Nautical Twilight 6:36 AM CDT 7:18 PM CDT
Astronomical Twilight 6:04 AM CDT 7:50 PM CDT
Moon 11:37 PM CDT (10/25) 1:18 PM CDT (10/25)
Length of Visible Light 11h 37m
Length of Day
10h 41m
Waning Gibbous, 62% of the Moon is Illuminated
Oct 25
Waning Gibbous
Oct 26
Last Quarter
Nov 3
New
Nov 9
First Quarter
Nov 17
Full

Hourly Weather History & Observations

Time (CDT) Temp. Windchill Dew Point Humidity Pressure Visibility Wind Dir Wind Speed Gust Speed Precip Events Conditions
12:15 AM 32.0 °F 25.6 °F 26.6 °F 80% 30.38 in 10.0 mi WSW 6.9 mph - N/A   Partly Cloudy
12:35 AM 32.0 °F 25.6 °F 26.6 °F 80% 30.39 in 10.0 mi WSW 6.9 mph - N/A   Partly Cloudy
12:55 AM 32.0 °F 24.8 °F 26.6 °F 80% 30.39 in 10.0 mi West 8.1 mph - N/A   Partly Cloudy
1:15 AM 32.0 °F 25.6 °F 26.6 °F 80% 30.39 in 10.0 mi WSW 6.9 mph - N/A   Clear
1:35 AM 32.0 °F 24.8 °F 24.8 °F 75% 30.40 in 10.0 mi West 8.1 mph - N/A   Partly Cloudy
1:55 AM 32.0 °F 24.8 °F 24.8 °F 75% 30.40 in 10.0 mi West 8.1 mph - N/A   Partly Cloudy
2:15 AM 32.0 °F 24.8 °F 24.8 °F 75% 30.40 in 10.0 mi West 8.1 mph - N/A   Partly Cloudy
2:35 AM 32.0 °F 25.6 °F 24.8 °F 75% 30.41 in 10.0 mi WSW 6.9 mph - N/A   Partly Cloudy
2:55 AM 30.2 °F 23.4 °F 24.8 °F 80% 30.40 in 10.0 mi West 6.9 mph - N/A   Partly Cloudy
3:15 AM 30.2 °F 22.6 °F 24.8 °F 80% 30.40 in 10.0 mi West 8.1 mph - N/A   Partly Cloudy
3:35 AM 32.0 °F 24.8 °F 24.8 °F 75% 30.40 in 10.0 mi West 8.1 mph - N/A   Partly Cloudy
3:55 AM 32.0 °F 24.8 °F 24.8 °F 75% 30.40 in 10.0 mi WSW 8.1 mph - N/A   Clear
4:15 AM 32.0 °F 25.6 °F 24.8 °F 75% 30.40 in 10.0 mi West 6.9 mph - N/A   Clear
4:35 AM 30.2 °F 24.3 °F 23.0 °F 75% 30.40 in - WSW 5.8 mph - N/A   Clear
4:55 AM 30.2 °F 24.3 °F 23.0 °F 75% 30.40 in 10.0 mi WSW 5.8 mph - N/A   Clear
5:15 AM 28.4 °F 22.2 °F 23.0 °F 80% 30.40 in 10.0 mi WSW 5.8 mph - N/A   Clear
5:35 AM 28.4 °F 22.2 °F 23.0 °F 80% 30.41 in 10.0 mi WSW 5.8 mph - N/A   Clear
5:55 AM 28.4 °F 21.2 °F 23.0 °F 80% 30.41 in 10.0 mi WSW 6.9 mph - N/A   Clear
6:15 AM 28.4 °F 21.2 °F 23.0 °F 80% 30.41 in 10.0 mi WSW 6.9 mph - N/A   Clear
6:35 AM 30.2 °F 24.3 °F 23.0 °F 75% 30.41 in 10.0 mi SW 5.8 mph - N/A   Clear
6:55 AM 30.2 °F 24.3 °F 23.0 °F 75% 30.41 in 10.0 mi SW 5.8 mph - N/A   Partly Cloudy
7:15 AM 30.2 °F 24.3 °F 23.0 °F 75% 30.41 in 10.0 mi SW 5.8 mph - N/A   Mostly Cloudy
7:35 AM 28.4 °F 22.2 °F 23.0 °F 80% 30.40 in 10.0 mi SW 5.8 mph - N/A   Partly Cloudy
7:55 AM 28.4 °F 22.2 °F 23.0 °F 80% 30.40 in 10.0 mi SW 5.8 mph - N/A   Clear
8:15 AM 30.2 °F 23.4 °F 23.0 °F 75% 30.40 in 10.0 mi SW 6.9 mph - N/A   Clear
8:35 AM 32.0 °F 26.4 °F 24.8 °F 75% 30.41 in 10.0 mi SW 5.8 mph - N/A   Clear
8:55 AM 33.8 °F 27.0 °F 24.8 °F 70% 30.41 in 10.0 mi SW 8.1 mph - N/A   Clear
9:15 AM 35.6 °F 28.6 °F 26.6 °F 70% 30.41 in 10.0 mi SW 9.2 mph - N/A   Clear
9:35 AM 39.2 °F 33.6 °F 28.4 °F 65% 30.41 in 10.0 mi SW 8.1 mph 15.0 mph N/A   Clear
9:55 AM 41.0 °F 34.7 °F 28.4 °F 61% 30.41 in 10.0 mi SW 10.4 mph 17.3 mph N/A   Clear
10:15 AM 42.8 °F 37.0 °F 28.4 °F 57% 30.40 in 10.0 mi SW 10.4 mph - N/A   Clear
10:35 AM 44.6 °F 39.2 °F 28.4 °F 53% 30.40 in 10.0 mi SW 10.4 mph - N/A   Clear
10:55 AM 46.4 °F 41.5 °F 28.4 °F 50% 30.39 in 10.0 mi SW 10.4 mph - N/A   Clear
11:15 AM 46.4 °F 40.4 °F 28.4 °F 50% 30.38 in 10.0 mi SW 13.8 mph 20.7 mph N/A   Clear
11:35 AM 48.2 °F - 26.6 °F 43% 30.37 in 10.0 mi SSW 15.0 mph 21.9 mph N/A   Clear
11:55 AM 50.0 °F - 26.6 °F 40% 30.37 in 10.0 mi SW 16.1 mph - N/A   Clear
12:15 PM 50.0 °F - 26.6 °F 40% 30.36 in 10.0 mi SW 15.0 mph 25.3 mph N/A   Clear
12:35 PM 51.8 °F - 26.6 °F 38% 30.35 in 10.0 mi WSW 17.3 mph 25.3 mph N/A   Clear
12:55 PM 51.8 °F - 26.6 °F 38% 30.33 in 10.0 mi SSW 17.3 mph 23.0 mph N/A   Clear
1:15 PM 51.8 °F - 24.8 °F 35% 30.31 in 10.0 mi SSW 15.0 mph 21.9 mph N/A   Clear
1:35 PM 53.6 °F - 24.8 °F 33% 30.30 in 10.0 mi SSW 15.0 mph 24.2 mph N/A   Clear
1:55 PM 53.6 °F - 26.6 °F 35% 30.28 in 10.0 mi SSW 17.3 mph - N/A   Clear
2:15 PM 53.6 °F - 26.6 °F 35% 30.27 in 10.0 mi SW 15.0 mph 24.2 mph N/A   Clear
2:35 PM 55.4 °F - 26.6 °F 33% 30.26 in 10.0 mi SW 13.8 mph 27.6 mph N/A   Clear
2:55 PM 55.4 °F - 26.6 °F 33% 30.24 in 10.0 mi SSW 18.4 mph 24.2 mph N/A   Clear
3:15 PM 55.4 °F - 26.6 °F 33% 30.23 in 10.0 mi SSW 24.2 mph 31.1 mph N/A   Clear
3:35 PM 55.4 °F - 26.6 °F 33% 30.22 in 10.0 mi SW 16.1 mph 25.3 mph N/A   Clear
3:55 PM 55.4 °F - 26.6 °F 33% 30.22 in 10.0 mi SW 15.0 mph 25.3 mph N/A   Clear
4:15 PM 55.4 °F - 26.6 °F 33% 30.20 in 10.0 mi SW 16.1 mph 23.0 mph N/A   Clear
4:35 PM 55.4 °F - 26.6 °F 33% 30.20 in 10.0 mi SW 16.1 mph 25.3 mph N/A   Clear
4:55 PM 53.6 °F - 26.6 °F 35% 30.19 in 10.0 mi SW 17.3 mph 23.0 mph N/A   Clear
5:15 PM 53.6 °F - 26.6 °F 35% 30.18 in 10.0 mi SW 12.7 mph 25.3 mph N/A   Clear
5:35 PM 53.6 °F - 26.6 °F 35% 30.17 in 9.0 mi SW 13.8 mph - N/A   Clear
5:55 PM 51.8 °F - 26.6 °F 38% 30.16 in 9.0 mi SSW 15.0 mph 23.0 mph N/A   Clear
6:15 PM 51.8 °F - 26.6 °F 38% 30.15 in 10.0 mi SSW 11.5 mph 17.3 mph N/A   Clear
6:35 PM 50.0 °F - 26.6 °F 40% 30.14 in 10.0 mi SSW 8.1 mph 13.8 mph N/A   Clear
6:55 PM 46.4 °F 41.9 °F 28.4 °F 50% 30.13 in 5.0 mi SSW 9.2 mph - N/A   Haze
7:15 PM 46.4 °F 41.9 °F 28.4 °F 50% 30.13 in 10.0 mi South 9.2 mph - N/A   Clear
7:35 PM 46.4 °F 40.7 °F 26.6 °F 46% 30.12 in 10.0 mi SSW 12.7 mph - N/A   Clear
7:55 PM 46.4 °F 40.7 °F 26.6 °F 46% 30.11 in 10.0 mi SSW 12.7 mph - N/A   Clear
8:15 PM 46.4 °F 40.4 °F 26.6 °F 46% 30.10 in 10.0 mi SSW 13.8 mph - N/A   Clear
8:35 PM 44.6 °F 38.4 °F 26.6 °F 49% 30.10 in 10.0 mi SSW 12.7 mph - N/A   Scattered Clouds
8:55 PM 46.4 °F 40.4 °F 24.8 °F 43% 30.10 in 10.0 mi SSW 13.8 mph - N/A   Mostly Cloudy
9:15 PM 46.4 °F 39.8 °F 24.8 °F 43% 30.10 in 10.0 mi SSW 16.1 mph 23.0 mph N/A   Overcast
9:35 PM 46.4 °F 40.4 °F 24.8 °F 43% 30.10 in 10.0 mi SSW 13.8 mph 20.7 mph N/A   Overcast
9:55 PM 46.4 °F 40.7 °F 24.8 °F 43% 30.09 in 10.0 mi SSW 12.7 mph 18.4 mph N/A   Overcast
10:15 PM 46.4 °F 41.1 °F 24.8 °F 43% 30.10 in 10.0 mi SSW 11.5 mph 18.4 mph N/A   Overcast
10:35 PM 46.4 °F 41.1 °F 24.8 °F 43% 30.10 in 10.0 mi SW 11.5 mph 18.4 mph N/A   Overcast
10:55 PM 46.4 °F 40.7 °F 24.8 °F 43% 30.10 in 10.0 mi SW 12.7 mph - N/A   Mostly Cloudy
11:15 PM 44.6 °F 38.1 °F 24.8 °F 46% 30.08 in 10.0 mi SW 13.8 mph 19.6 mph N/A   Overcast
11:35 PM 44.6 °F 38.8 °F 26.6 °F 49% 30.07 in 10.0 mi SW 11.5 mph 20.7 mph N/A   Overcast
11:55 PM 44.6 °F 39.2 °F 26.6 °F 49% 30.07 in 10.0 mi SW 10.4 mph - N/A   Mostly Cloudy